Location: Unspecified
(0.0000°N, 0.0000°E)
Time: 23:04:48
(UTC+00:00)

S-56A Canister/Altair - Pass Details

Date: 10 October 2020
Orbit: 633 x 2499 km, 38.9° (Epoch: 28 October)

Event Time Altitude Azimuth Distance (km) Brightness Sun altitude
Rises 10:38:01 0° 285° (WNW) 4,699 11.4 71.5°
Reaches altitude 10° 10:43:09 10° 308° (NW) 4,115 11.2 72.7°
Maximum altitude 10:48:31 14° 337° (NNW) 4,123 11.3 73.9°
Drops below altitude 10° 10:54:40 10° 5° (N) 4,803 11.7 75.3°
Sets 11:01:53 0° 27° (NNE) 6,066 12.1 76.8°
